• In Hungary
  • List of Countries
  • For 7 days
  • Water Temperature
  • Satellite Maps
  • Weather Map
  • News
  • Weather Widgets
  • user-avatar
    Login

    Hourly Weather Saratovka

    Today, 14 November, Wednesday

    Time Temperature Precipitation Wind Pressure Humidity
    00:00 -7°C° 0 mm 2 mps 769 mmHg 39%
    01:00 -7°C° 0 mm 2 mps 769 mmHg 39%
    02:00 -7°C° 0 mm 2 mps 769 mmHg 39%
    03:00 -7°C° 0 mm 2 mps 769 mmHg 38%
    04:00 -8°C° 0 mm 2 mps 769 mmHg 37%
    05:00 -8°C° 0 mm 2 mps 769 mmHg 37%
    06:00 -7°C° 0 mm 1 mps 768 mmHg 37%
    07:00 -7°C° 0 mm 1 mps 768 mmHg 37%
    08:00 -6°C° 0 mm 1 mps 768 mmHg 34%
    09:00 -4°C° 0 mm 1 mps 768 mmHg 31%
    10:00 -5°C° 0 mm 2 mps 768 mmHg 27%
    11:00 -4°C° 0 mm 2 mps 768 mmHg 25%
    12:00 -1°C° 0 mm 1 mps 768 mmHg 22%
    13:00 0°C° 0 mm 1 mps 768 mmHg 20%
    14:00 -1°C° 0 mm 1 mps 767 mmHg 21%
    15:00 -1°C° 0 mm 1 mps 767 mmHg 22%
    16:00 -1°C° 0 mm 1 mps 767 mmHg 23%
    17:00 -2°C° 0 mm 1 mps 767 mmHg 24%
    18:00 -2°C° 0 mm 1 mps 767 mmHg 25%
    19:00 -3°C° 0 mm 1 mps 767 mmHg 26%
    20:00 -3°C° 0 mm 1 mps 767 mmHg 26%
    21:00 -3°C° 0 mm 1 mps 767 mmHg 27%
    22:00 -4°C° 0 mm 1 mps 767 mmHg 28%
    23:00 -4°C° 0 mm 1 mps 767 mmHg 29%

    Tomorrow, 15 November, Thursday

    Time Temperature Precipitation Wind Pressure Humidity
    00:00 -4°C° 0 mm 1 mps 766 mmHg 30%
    01:00 -4°C° 0 mm 1 mps 766 mmHg 31%
    02:00 -4°C° 0 mm 1 mps 767 mmHg 31%
    03:00 -6°C° 0 mm 1 mps 767 mmHg 32%
    04:00 -6°C° 0 mm 1 mps 767 mmHg 33%
    05:00 -6°C° 0 mm 1 mps 767 mmHg 33%
    06:00 -6°C° 0 mm 1 mps 767 mmHg 34%
    07:00 -6°C° 0 mm 1 mps 766 mmHg 34%
    08:00 -6°C° 0 mm 2 mps 767 mmHg 33%
    09:00 -5°C° 0 mm 2 mps 767 mmHg 31%
    10:00 -5°C° 0 mm 2 mps 767 mmHg 29%
    11:00 -4°C° 0 mm 2 mps 767 mmHg 27%
    12:00 -3°C° 0 mm 2 mps 767 mmHg 24%
    13:00 -2°C° 0 mm 2 mps 767 mmHg 22%
    14:00 -2°C° 0 mm 2 mps 767 mmHg 24%
    15:00 -2°C° 0 mm 2 mps 767 mmHg 26%
    16:00 -3°C° 0 mm 2 mps 767 mmHg 27%
    17:00 -3°C° 0 mm 2 mps 767 mmHg 29%
    18:00 -4°C° 0 mm 2 mps 767 mmHg 31%
    19:00 -5°C° 0 mm 2 mps 767 mmHg 33%
    20:00 -5°C° 0 mm 2 mps 768 mmHg 34%
    21:00 -5°C° 0 mm 2 mps 768 mmHg 35%
    22:00 -5°C° 0 mm 2 mps 768 mmHg 36%
    23:00 -5°C° 0 mm 2 mps 768 mmHg 37%

    Day after tomorrow, 16 November, Friday

    Time Temperature Precipitation Wind Pressure Humidity
    00:00 -5°C° 0 mm 2 mps 768 mmHg 38%
    01:00 -4°C° 0 mm 1 mps 768 mmHg 39%
    02:00 -4°C° 0 mm 1 mps 768 mmHg 39%
    03:00 -4°C° 0 mm 1 mps 768 mmHg 39%
    04:00 -4°C° 0 mm 1 mps 769 mmHg 40%
    05:00 -4°C° 0 mm 1 mps 769 mmHg 40%
    06:00 -4°C° 0 mm 1 mps 769 mmHg 40%
    07:00 -6°C° 0 mm 2 mps 769 mmHg 41%
    08:00 -5°C° 0 mm 2 mps 769 mmHg 38%
    09:00 -4°C° 0 mm 2 mps 769 mmHg 36%
    10:00 -4°C° 0 mm 2 mps 769 mmHg 33%
    11:00 -1°C° 0 mm 1 mps 769 mmHg 31%
    12:00 0°C° 0 mm 1 mps 769 mmHg 29%
    13:00 +1°C° 0 mm 1 mps 769 mmHg 26%
    14:00 +1°C° 0 mm 1 mps 768 mmHg 28%
    15:00 0°C° 0 mm 1 mps 768 mmHg 31%
    16:00 0°C° 0 mm 1 mps 768 mmHg 33%
    17:00 -3°C° 0 mm 2 mps 768 mmHg 34%
    18:00 -3°C° 0 mm 2 mps 768 mmHg 36%
    19:00 -4°C° 0 mm 2 mps 768 mmHg 38%
    20:00 -4°C° 0 mm 2 mps 767 mmHg 39%
    21:00 -5°C° 0 mm 2 mps 767 mmHg 40%
    22:00 -3°C° 0 mm 1 mps 767 mmHg 40%
    23:00 -3°C° 0 mm 1 mps 767 mmHg 41%

    17 November, Saturday

    Time Temperature Precipitation Wind Pressure Humidity
    00:00 -3°C° 0 mm 1 mps 767 mmHg 41%
    01:00 -4°C° 0 mm 1 mps 767 mmHg 41%
    02:00 -4°C° 0 mm 1 mps 766 mmHg 42%
    03:00 -4°C° 0 mm 1 mps 766 mmHg 42%
    04:00 -4°C° 0 mm 1 mps 766 mmHg 42%
    05:00 -4°C° 0 mm 1 mps 765 mmHg 41%
    06:00 -4°C° 0 mm 1 mps 765 mmHg 41%
    07:00 -6°C° 0 mm 1 mps 765 mmHg 40%
    08:00 -4°C° 0 mm 1 mps 765 mmHg 37%
    09:00 -3°C° 0 mm 1 mps 764 mmHg 34%
    10:00 -2°C° 0 mm 1 mps 764 mmHg 30%
    11:00 -1°C° 0 mm 1 mps 764 mmHg 27%
    12:00 -2°C° 0 mm 2 mps 763 mmHg 24%
    13:00 -1°C° 0 mm 2 mps 763 mmHg 21%
    14:00 -1°C° 0 mm 2 mps 762 mmHg 22%
    15:00 -2°C° 0 mm 2 mps 762 mmHg 23%
    16:00 -2°C° 0 mm 2 mps 761 mmHg 24%
    17:00 -3°C° 0 mm 2 mps 761 mmHg 25%
    18:00 -3°C° 0 mm 2 mps 760 mmHg 25%
    19:00 -4°C° 0 mm 2 mps 760 mmHg 26%
    20:00 -4°C° 0 mm 2 mps 760 mmHg 26%
    21:00 -4°C° 0 mm 2 mps 759 mmHg 26%
    22:00 -4°C° 0 mm 2 mps 759 mmHg 25%
    23:00 -4°C° 0 mm 2 mps 759 mmHg 25%

    18 November, Sunday

    Time Temperature Precipitation Wind Pressure Humidity
    00:00 -4°C° 0 mm 2 mps 758 mmHg 25%
    01:00 -4°C° 0 mm 2 mps 758 mmHg 25%
    02:00 -4°C° 0 mm 2 mps 758 mmHg 25%
    03:00 -5°C° 0 mm 2 mps 757 mmHg 25%
    04:00 -6°C° 0 mm 3 mps 757 mmHg 25%
    05:00 -6°C° 0 mm 3 mps 757 mmHg 25%
    06:00 -6°C° 0 mm 3 mps 756 mmHg 24%
    07:00 -5°C° 0 mm 2 mps 756 mmHg 24%
    08:00 -4°C° 0 mm 2 mps 756 mmHg 23%
    09:00 -4°C° 0 mm 2 mps 756 mmHg 22%
    10:00 -3°C° 0 mm 2 mps 756 mmHg 21%
    11:00 -2°C° 0 mm 2 mps 756 mmHg 20%
    12:00 -1°C° 0 mm 3 mps 756 mmHg 19%
    13:00 0°C° 0 mm 3 mps 756 mmHg 18%
    14:00 -1°C° 0 mm 2 mps 755 mmHg 20%
    15:00 -1°C° 0 mm 2 mps 755 mmHg 23%
    16:00 -2°C° 0 mm 2 mps 755 mmHg 25%
    17:00 -2°C° 0 mm 2 mps 755 mmHg 26%
    18:00 -3°C° 0 mm 2 mps 755 mmHg 26%
    19:00 -3°C° 0 mm 2 mps 755 mmHg 27%
    20:00 -3°C° 0 mm 2 mps 755 mmHg 27%
    21:00 -3°C° 0 mm 2 mps 755 mmHg 27%
    22:00 -3°C° 0 mm 2 mps 755 mmHg 27%
    23:00 -3°C° 0 mm 2 mps 756 mmHg 27%

    19 November, Monday

    Time Temperature Precipitation Wind Pressure Humidity
    00:00 -3°C° 0 mm 2 mps 756 mmHg 27%
    01:00 -3°C° 0 mm 2 mps 756 mmHg 27%
    02:00 -3°C° 0 mm 2 mps 756 mmHg 28%
    03:00 -3°C° 0 mm 2 mps 756 mmHg 29%
    04:00 -4°C° 0 mm 3 mps 756 mmHg 30%
    05:00 -4°C° 0 mm 3 mps 756 mmHg 32%
    06:00 -4°C° 0 mm 3 mps 756 mmHg 34%
    07:00 -4°C° 0 mm 3 mps 756 mmHg 36%
    08:00 -2°C° 0 mm 3 mps 756 mmHg 37%
    09:00 -2°C° 0 mm 3 mps 757 mmHg 38%
    10:00 -1°C° 0 mm 3 mps 757 mmHg 39%
    11:00 -1°C° 0 mm 3 mps 757 mmHg 41%
    12:00 0°C° 0 mm 3 mps 757 mmHg 42%
    13:00 0°C° 0 mm 3 mps 757 mmHg 43%
    14:00 0°C° 0 mm 3 mps 757 mmHg 46%
    15:00 -1°C° 0 mm 3 mps 757 mmHg 49%
    16:00 -1°C° 0 mm 2 mps 757 mmHg 52%
    17:00 -1°C° 0 mm 2 mps 757 mmHg 55%
    18:00 -1°C° 0 mm 2 mps 757 mmHg 57%
    19:00 -2°C° 0 mm 2 mps 757 mmHg 60%
    20:00 -2°C° 0.1 mm 2 mps 757 mmHg 66%
    21:00 -2°C° 0.1 mm 2 mps 757 mmHg 72%
    22:00 -2°C° 0.1 mm 2 mps 757 mmHg 78%
    23:00 -2°C° 0.1 mm 2 mps 757 mmHg 80%
    Show more